NIMIQ 1                 
1 25740U 99027A   19257.52040722 -.00000211  00000-0  00000-0 0  9996
2 25740   0.4436  96.4134 0005239  76.0298 281.5886  1.00275766 74301
SL-12 R/B(2)            
1 25743U 99027D   19257.31205809 -.00000168  00000-0  00000-0 0  9996
2 25743  16.5230 139.2342 5154675  52.7547 232.9092  1.87836691139501